This demonstration page uses our WeatherBlox Daily Observations layout. Learn more.

Hourly Observations for June 25, 2019

Temp ( °F °C ) Dew Point ( °F °C ) Humidity (%) Winds ( mph kmh ) Pressure ( in mb ) Visibility ( mi km ) Precip ( " mm )
12:15 am 00:15 Clear 66 18.9 56 13.6 71 71 S 6 9 29.71 1006 10 16.09344 0 0
12:35 am 00:35 Clear 66 19 57 14 73 73 SSW 7 11 29.71 1006 10 16.09344 0 0
12:55 am 00:55 Clear 65 18.6 57 13.7 73 73 SSW 8 13 29.71 1006 10 16.09344 0 0
1:15 am 01:15 Clear 66 18.7 56 13.5 72 72 SW 7 11 29.71 1006 10 16.09344 0 0
1:35 am 01:35 Clear 66 18.8 56 13.6 72 72 SW 9 15 29.71 1006 10 16.09344 0 0
1:55 am 01:55 Clear 68 19.9 55 12.9 64 64 SW 10 17 29.71 1006 10 16.09344 0 0
2:15 am 02:15 Clear 68 20 54 12 60 60 WSW 9 15 29.71 1006 10 16.09344 0 0
2:35 am 02:35 Partly Cloudy 68 20 55 12.5 62 62 NW 7 11 29.74 1007 10 16.09344 0 0
2:55 am 02:55 Partly Cloudy 67 19.3 56 13.5 69 69 N 10 17 29.77 1008 10 16.09344 0 0
3:15 am 03:15 Partly Cloudy 65 18.2 56 13.3 73 73 N 7 11 29.83 1010 10 16.09344 0 0
3:35 am 03:35 Mostly Cloudy 64 17.7 57 13.7 78 78 SE 7 11 29.83 1010 10 16.09344 0 0
3:55 am 03:55 Partly Cloudy 63 17.3 56 13.3 78 78 E 12 19 29.83 1010 10 16.09344 0 0
4:15 am 04:15 Clear 63 17 55 13 77 77 Calm 29.83 1010 10 16.09344 0 0
4:35 am 04:35 Clear 60 15.5 56 13.2 86 86 Calm 29.85 1011 10 16.09344 0 0
4:55 am 04:55 Clear 61 16.1 55 13 82 82 S 5 7 29.85 1011 10 16.09344 0 0
5:15 am 05:15 Partly Cloudy 60 15.6 56 13.1 85 85 SSW 5 7 29.85 1011 10 16.09344 0 0
5:35 am 05:35 Partly Cloudy 62 16.8 55 12.9 78 78 ESE 3 6 29.88 1012 10 16.09344 0 0
5:55 am 05:55 Partly Cloudy 63 17.2 55 12.9 76 76 ESE 6 9 29.85 1011 10 16.09344 0 0
6:15 am 06:15 Sunny 62 16.7 56 13.1 79 79 SE 13 20 29.85 1011 10 16.09344 0 0
6:35 am 06:35 Sunny 62 16.5 56 13.2 81 81 NE 10 17 29.85 1011 10 16.09344 0 0
6:55 am 06:55 Sunny 62 16.6 56 13.2 80 80 NE 8 13 29.85 1011 10 16.09344 0 0
7:15 am 07:15 Sunny 63 17 56 13.5 80 80 E 10 17 29.85 1011 10 16.09344 0 0
7:35 am 07:35 Sunny 63 17.4 56 13.6 79 79 ESE 9 15 29.85 1011 10 16.09344 0 0
7:55 am 07:55 Sunny 65 18.1 58 14.2 78 78 ESE 7 11 29.85 1011 10 16.09344 0 0
8:15 am 08:15 Sunny 66 18.7 58 14.4 76 76 E 6 9 29.83 1010 10 16.09344 0 0
8:35 am 08:35 Sunny 67 19.4 58 14.7 74 74 E 8 13 29.83 1010 10 16.09344 0 0
8:55 am 08:55 Sunny 68 20.1 59 15.2 74 74 ESE 8 13 29.83 1010 10 16.09344 0 0
9:15 am 09:15 Sunny 69 20.8 60 15.6 72 72 E 7 11 29.83 1010 10 16.09344 0 0
9:35 am 09:35 Sunny 71 21.8 61 16.3 71 71 E 7 11 29.83 1010 10 16.09344 0 0
9:55 am 09:55 Sunny 73 22.6 62 16.7 69 69 E 6 9 29.8 1009 10 16.09344 0 0
10:15 am 10:15 Sunny 75 23.7 63 17.1 67 67 E 5 7 29.8 1009 10 16.09344 0 0
10:35 am 10:35 Sunny 76 24.7 62 16.7 61 61 W 6 9 29.8 1009 10 16.09344 0 0
10:55 am 10:55 Sunny 77 25.1 62 16.6 59 59 Calm 29.83 1010 10 16.09344 0 0
11:15 am 11:15 Sunny 78 25.6 62 16.7 58 58 SSW 8 13 29.83 1010 10 16.09344 0 0
11:35 am 11:35 Sunny 78 25.8 63 17.1 59 59 SW 7 11 29.83 1010 10 16.09344 0 0
11:55 am 11:55 Sunny 79 26.1 63 17.2 58 58 SW 5 7 29.83 1010 10 16.09344 0 0
12:15 pm 12:15 Sunny 79 26.1 63 17.1 58 58 SW 7 11 29.83 1010 10 16.09344 0 0
12:35 pm 12:35 Sunny 80 26.7 63 17.3 56 56 S 6 9 29.8 1009 10 16.09344 0 0
12:55 pm 12:55 Sunny 81 27.1 63 17 54 54 S 3 6 29.8 1009 10 16.09344 0 0
1:15 pm 13:15 Sunny 82 27.7 64 17.7 55 55 SSW 8 13 29.8 1009 10 16.09344 0 0
1:35 pm 13:35 Sunny 82 28 64 17.9 54 54 WSW 6 9 29.8 1009 10 16.09344 0 0
1:55 pm 13:55 Sunny 83 28.5 66 18.8 56 56 W 6 9 29.77 1008 10 16.09344 0 0
2:15 pm 14:15 Sunny 84 29 67 19.2 55 55 SW 7 11 29.77 1008 10 16.09344 0 0
2:35 pm 14:35 Sunny 85 29.4 66 19 54 54 SW 9 15 29.77 1008 10 16.09344 0 0
2:55 pm 14:55 Sunny 86 29.8 66 19 52 52 SW 7 11 29.74 1007 10 16.09344 0 0
3:15 pm 15:15 Partly Cloudy 86 30 67 19.6 54 54 SW 7 11 29.74 1007 10 16.09344 0 0
3:35 pm 15:35 Sunny 86 30.2 67 19.2 52 52 SW 6 9 29.74 1007 10 16.09344 0 0
3:55 pm 15:55 Sunny 87 30.5 67 19.2 51 51 SW 6 9 29.74 1007 10 16.09344 0 0
4:15 pm 16:15 Sunny 87 30.5 66 19.1 51 51 W 7 11 29.71 1006 10 16.09344 0 0
4:35 pm 16:35 Partly Cloudy 87 30.5 66 19.1 51 51 WSW 12 19 29.71 1006 10 16.09344 0 0
4:55 pm 16:55 Sunny 87 30.6 65 18.4 48 48 W 10 17 29.71 1006 10 16.09344 0 0
5:15 pm 17:15 Sunny 87 30.7 64 17.7 46 46 W 9 15 29.68 1005 10 16.09344 0 0
5:35 pm 17:35 Sunny 88 31 65 18.2 46 46 W 6 9 29.71 1006 10 16.09344 0 0
5:55 pm 17:55 Sunny with Nearby Thunderstorms 88 31 64 17.6 45 45 NW 5 7 29.71 1006 10 16.09344 0 0
6:15 pm 18:15 Sunny 87 30.8 63 17.4 45 45 N 3 6 29.71 1006 10 16.09344 0 0
6:35 pm 18:35 Sunny 87 30.4 64 18 47 47 N 6 9 29.71 1006 10 16.09344 0 0
6:55 pm 18:55 Sunny 86 30 65 18.1 49 49 NE 10 17 29.71 1006 10 16.09344 0 0
7:15 pm 19:15 Sunny 80 26.5 64 17.9 59 59 ENE 14 22 29.74 1007 10 16.09344 0 0
7:35 pm 19:35 Sunny 79 26.1 62 16.9 57 57 ENE 15 24 29.77 1008 10 16.09344 0 0
7:55 pm 19:55 Partly Cloudy 78 25.5 60 15.6 54 54 ESE 22 35 29.8 1009 10 16.09344 0 0
8:15 pm 20:15 Partly Cloudy 73 22.8 59 15.2 62 62 ESE 15 24 29.8 1009 10 16.09344 0 0
8:35 pm 20:35 Sunny 73 22.5 60 15.5 65 65 E 8 13 29.8 1009 10 16.09344 0 0
8:55 pm 20:55 Sunny 71 21.6 60 15.6 69 69 E 3 6 29.83 1010 10 16.09344 0 0
9:15 pm 21:15 Clear 70 21.1 61 16 73 73 ENE 5 7 29.83 1010 10 16.09344 0 0
9:35 pm 21:35 Clear 69 20.8 62 16.5 77 77 E 3 6 29.83 1010 10 16.09344 0 0
9:55 pm 21:55 Clear 68 20.2 62 16.7 80 80 NE 5 7 29.85 1011 10 16.09344 0 0
10:15 pm 22:15 Clear 67 19.4 63 17 86 86 ENE 3 6 29.85 1011 10 16.09344 0 0
10:35 pm 22:35 Clear 67 19.2 63 17.1 88 88 ENE 6 9 29.88 1012 10 16.09344 0 0
10:55 pm 22:55 Clear 65 18.6 63 17 90 90 NE 5 7 29.91 1013 10 16.09344 0 0
11:15 pm 23:15 Clear 65 18.2 63 17.1 93 93 Calm 29.91 1013 10 16.09344 0 0
11:35 pm 23:35 Clear 64 17.8 63 17 95 95 NE 6 9 29.91 1013 10 16.09344 0 0
11:55 pm 23:55 Clear 64 17.5 62 16.9 96 96 NE 6 9 29.91 1013 10 16.09344 0 0

Powered by AerisWeather